N565W -KASE

Flight info

Callsign N565W
Flight time N/A
Altitude VFR
Route
Aircraft C152/L-DOV/C

Departure

Time N/A
Airport -

Arrival

Time 2026-04-22 00:53
Airport Aspen-Pitkin County Airport (Sardy Field) (KASE)
Time Latitude Longitude Altitude Speed Heading
2026-04-22 00:43 39.12333 -106.67788 12298 ft 92 kts 253°
2026-04-22 00:43 39.12193 -106.68572 12300 ft 89 kts 253°
2026-04-22 00:43 39.12050 -106.69350 12304 ft 91 kts 253°
2026-04-22 00:43 39.11881 -106.70181 12326 ft 102 kts 253°
2026-04-22 00:44 39.11715 -106.71073 12319 ft 100 kts 253°
2026-04-22 00:44 39.11560 -106.71948 12306 ft 101 kts 260°
2026-04-22 00:44 39.11540 -106.72843 12283 ft 99 kts 266°
2026-04-22 00:44 39.11530 -106.73728 12217 ft 99 kts 265°
2026-04-22 00:45 39.11615 -106.74626 12113 ft 108 kts 288°
2026-04-22 00:45 39.11916 -106.75475 11977 ft 99 kts 296°
2026-04-22 00:45 39.12340 -106.76170 11862 ft 99 kts 303°
2026-04-22 00:45 39.12779 -106.76876 11746 ft 104 kts 304°
2026-04-22 00:46 39.13229 -106.77600 11619 ft 100 kts 305°
2026-04-22 00:46 39.13791 -106.78028 11490 ft 90 kts 334°
2026-04-22 00:46 39.14404 -106.78359 11365 ft 99 kts 333°
2026-04-22 00:46 39.15019 -106.78684 11253 ft 99 kts 333°
2026-04-22 00:47 39.15691 -106.79028 11113 ft 107 kts 332°
2026-04-22 00:47 39.16413 -106.79394 10946 ft 115 kts 333°
2026-04-22 00:47 39.17171 -106.79786 10785 ft 120 kts 330°
2026-04-22 00:47 39.17889 -106.80341 10591 ft 118 kts 321°
2026-04-22 00:48 39.18559 -106.80888 10362 ft 113 kts 322°
2026-04-22 00:48 39.19238 -106.81448 10086 ft 118 kts 321°
2026-04-22 00:48 39.19923 -106.82012 9785 ft 116 kts 322°
2026-04-22 00:48 39.20474 -106.82719 9499 ft 113 kts 299°
2026-04-22 00:49 39.20911 -106.83554 9194 ft 112 kts 300°
2026-04-22 00:49 39.21349 -106.84403 8891 ft 112 kts 300°
2026-04-22 00:49 39.21768 -106.85159 8803 ft 98 kts 304°
2026-04-22 00:49 39.22402 -106.85515 8807 ft 104 kts 342°
2026-04-22 00:50 39.23090 -106.85765 8807 ft 102 kts 339°
2026-04-22 00:50 39.23762 -106.86028 8747 ft 101 kts 338°
2026-04-22 00:50 39.24420 -106.86274 8721 ft 95 kts 340°
2026-04-22 00:50 39.25057 -106.86523 8719 ft 97 kts 340°
2026-04-22 00:51 39.25707 -106.86768 8731 ft 97 kts 339°
2026-04-22 00:51 39.26301 -106.87112 8600 ft 96 kts 300°
2026-04-22 00:51 39.26230 -106.87882 8445 ft 92 kts 212°
2026-04-22 00:51 39.25636 -106.87888 8329 ft 82 kts 192°
2026-04-22 00:52 39.25134 -106.87956 8075 ft 66 kts 184°
2026-04-22 00:52 39.24712 -106.87895 7837 ft 60 kts 173°
2026-04-22 00:52 39.24317 -106.87778 7760 ft 58 kts 172°
2026-04-22 00:52 39.23933 -106.87628 7726 ft 58 kts 166°
2026-04-22 00:53 39.23566 -106.87463 7751 ft 57 kts 166°
2026-04-22 00:53 39.23193 -106.87294 7707 ft 49 kts 168°
2026-04-22 00:53 39.22958 -106.87197 7704 ft 23 kts 158°
2026-04-22 00:53 39.22897 -106.87099 7710 ft 11 kts 71°
2026-04-22 00:54 39.22892 -106.87042 7711 ft 0 kts 140°
2026-04-22 00:54 39.22892 -106.87041 7711 ft 1 kts 138°
2026-04-22 00:55 39.22881 -106.87033 7716 ft 6 kts 157°
2026-04-22 00:55 39.22811 -106.87000 7718 ft 15 kts 161°
2026-04-22 00:55 39.22587 -106.86895 7735 ft 9 kts 160°
2026-04-22 00:56 39.22552 -106.86878 7737 ft 7 kts 160°
2026-04-22 00:56 39.22516 -106.86860 7740 ft 4 kts 158°
2026-04-22 00:56 39.22494 -106.86850 7742 ft 3 kts 160°
2026-04-22 00:56 39.22459 -106.86834 7744 ft 7 kts 159°
2026-04-22 00:57 39.22399 -106.86807 7749 ft 11 kts 160°
2026-04-22 00:57 39.22321 -106.86769 7754 ft 12 kts 157°
2026-04-22 00:57 39.22245 -106.86730 7760 ft 11 kts 160°
2026-04-22 00:57 39.22173 -106.86697 7766 ft 11 kts 159°
2026-04-22 00:58 39.22105 -106.86664 7772 ft 10 kts 160°
2026-04-22 00:58 39.22042 -106.86634 7776 ft 9 kts 158°
2026-04-22 00:58 39.21986 -106.86607 7777 ft 8 kts 161°
2026-04-22 00:58 39.21924 -106.86577 7786 ft 11 kts 160°
2026-04-22 00:59 39.21840 -106.86537 7793 ft 15 kts 160°
2026-04-22 00:59 39.21742 -106.86492 7800 ft 14 kts 161°
2026-04-22 00:59 39.21667 -106.86454 7806 ft 10 kts 159°
2026-04-22 00:59 39.21612 -106.86428 7811 ft 7 kts 158°
2026-04-22 01:00 39.21576 -106.86411 7813 ft 5 kts 162°
2026-04-22 01:00 39.21527 -106.86388 7817 ft 9 kts 160°
2026-04-22 01:00 39.21460 -106.86356 7822 ft 11 kts 158°
2026-04-22 01:00 39.21381 -106.86318 7828 ft 13 kts 159°
2026-04-22 01:01 39.21291 -106.86275 7835 ft 14 kts 160°
2026-04-22 01:01 39.21227 -106.86250 7839 ft 7 kts 183°
2026-04-22 01:01 39.21213 -106.86253 7841 ft 0 kts 199°
2026-04-22 01:02 39.21197 -106.86262 7838 ft 7 kts 216°
2026-04-22 01:03 39.21197 -106.86352 7831 ft 16 kts 331°
2026-04-22 01:03 39.21406 -106.86451 7821 ft 54 kts 341°
2026-04-22 01:03 39.21868 -106.86665 7848 ft 76 kts 336°
2026-04-22 01:03 39.22351 -106.86912 7959 ft 78 kts 339°
2026-04-22 01:04 39.22877 -106.87071 8140 ft 77 kts 343°
2026-04-22 01:04 39.23429 -106.87242 8261 ft 88 kts 345°
2026-04-22 01:04 39.24002 -106.87353 8462 ft 80 kts 350°
2026-04-22 01:04 39.24587 -106.87395 8554 ft 83 kts 350°
2026-04-22 01:05 39.25159 -106.87505 8712 ft 86 kts 349°
2026-04-22 01:05 39.25767 -106.87600 8877 ft 87 kts 345°
2026-04-22 01:05 39.26314 -106.87891 9061 ft 89 kts 327°
2026-04-22 01:05 39.26899 -106.88225 9247 ft 93 kts 327°
2026-04-22 01:06 39.27387 -106.88709 9419 ft 86 kts 304°
2026-04-22 01:06 39.27732 -106.89316 9562 ft 82 kts 297°
2026-04-22 01:06 39.28057 -106.89877 9677 ft 74 kts 298°